TimePDT,TemperatureF,Dew PointF,Humidity,Sea Level PressureIn,VisibilityMPH,Wind Direction,Wind SpeedMPH,Gust SpeedMPH,PrecipitationIn,Events,Conditions,WindDirDegrees,DateUTC
12:15 AM,57.2,57.2,100,30.09,10.0,Calm,Calm,-,N/A,,Clear,0,2013-08-17 07:15:00
12:35 AM,57.2,57.2,100,30.10,10.0,Calm,Calm,-,N/A,,Clear,0,2013-08-17 07:35:00
12:55 AM,57.2,57.2,100,30.09,10.0,SSE,3.5,-,N/A,,Clear,150,2013-08-17 07:55:00
1:15 AM,57.2,57.2,100,30.09,10.0,SE,4.6,-,N/A,,Clear,130,2013-08-17 08:15:00
1:35 AM,57.2,57.2,100,30.08,10.0,ESE,4.6,-,N/A,,Clear,120,2013-08-17 08:35:00
1:55 AM,57.2,57.2,100,30.08,10.0,ESE,3.5,-,N/A,,Clear,110,2013-08-17 08:55:00
2:15 AM,57.2,55.4,94,30.08,10.0,ESE,3.5,-,N/A,,Clear,110,2013-08-17 09:15:00
2:35 AM,57.2,57.2,100,30.08,10.0,SE,3.5,-,N/A,,Clear,130,2013-08-17 09:35:00
2:55 AM,57.2,57.2,100,30.08,10.0,ESE,3.5,-,N/A,,Clear,120,2013-08-17 09:55:00
3:15 AM,55.4,55.4,100,30.08,10.0,Calm,Calm,-,N/A,,Clear,0,2013-08-17 10:15:00
3:35 AM,57.2,57.2,100,30.08,10.0,SE,3.5,-,N/A,,Clear,130,2013-08-17 10:35:00
3:55 AM,55.4,55.4,100,30.08,10.0,SE,4.6,-,N/A,,Clear,130,2013-08-17 10:55:00
4:15 AM,55.4,55.4,100,30.08,10.0,ESE,4.6,-,N/A,,Clear,120,2013-08-17 11:15:00
4:35 AM,55.4,55.4,100,30.08,10.0,ESE,4.6,-,N/A,,Partly Cloudy,120,2013-08-17 11:35:00
4:55 AM,55.4,55.4,100,30.08,10.0,Calm,Calm,-,N/A,,Scattered Clouds,0,2013-08-17 11:55:00
5:15 AM,57.2,57.2,100,30.08,10.0,ESE,4.6,-,N/A,,Overcast,120,2013-08-17 12:15:00
5:35 AM,57.2,57.2,100,30.08,10.0,Calm,Calm,-,N/A,,Overcast,0,2013-08-17 12:35:00
5:55 AM,57.2,57.2,100,30.08,10.0,SE,5.8,-,N/A,,Overcast,140,2013-08-17 12:55:00
6:15 AM,57.2,57.2,100,30.09,10.0,SE,5.8,-,N/A,,Overcast,130,2013-08-17 13:15:00
6:35 AM,57.2,57.2,100,30.10,10.0,Calm,Calm,-,N/A,,Overcast,0,2013-08-17 13:35:00
6:55 AM,57.2,57.2,100,30.10,10.0,SE,3.5,-,N/A,,Overcast,130,2013-08-17 13:55:00
7:15 AM,57.2,57.2,100,30.10,10.0,SE,4.6,-,N/A,,Overcast,130,2013-08-17 14:15:00
7:35 AM,59.0,57.2,94,30.10,10.0,Calm,Calm,-,N/A,,Overcast,0,2013-08-17 14:35:00
7:55 AM,59.0,57.2,94,30.11,10.0,Calm,Calm,-,N/A,,Overcast,0,2013-08-17 14:55:00
8:15 AM,60.8,57.2,88,30.12,10.0,Calm,Calm,-,N/A,,Overcast,0,2013-08-17 15:15:00
8:35 AM,60.8,57.2,88,30.12,10.0,Calm,Calm,-,N/A,,Overcast,0,2013-08-17 15:35:00
8:55 AM,60.8,57.2,88,30.11,10.0,Calm,Calm,-,N/A,,Overcast,0,2013-08-17 15:55:00
9:15 AM,62.6,59.0,88,30.12,10.0,Calm,Calm,-,N/A,,Overcast,0,2013-08-17 16:15:00
9:35 AM,64.4,60.8,88,30.12,10.0,Calm,Calm,-,N/A,,Overcast,0,2013-08-17 16:35:00
9:55 AM,64.4,60.8,88,30.12,10.0,Calm,Calm,-,N/A,,Overcast,0,2013-08-17 16:55:00
10:15 AM,66.2,60.8,83,30.12,10.0,Calm,Calm,-,N/A,,Overcast,0,2013-08-17 17:15:00
10:35 AM,68.0,60.8,78,30.12,10.0,North,6.9,-,N/A,,Overcast,360,2013-08-17 17:35:00
10:55 AM,66.2,60.8,83,30.13,10.0,NW,6.9,-,N/A,,Overcast,320,2013-08-17 17:55:00
11:15 AM,66.2,60.8,83,30.13,10.0,NNW,9.2,-,N/A,,Overcast,340,2013-08-17 18:15:00
11:35 AM,66.2,60.8,83,30.13,10.0,NNW,10.4,-,N/A,,Overcast,330,2013-08-17 18:35:00
11:55 AM,66.2,60.8,83,30.13,10.0,NNW,4.6,-,N/A,,Overcast,330,2013-08-17 18:55:00
12:15 PM,66.2,60.8,83,30.12,10.0,North,6.9,-,N/A,,Overcast,350,2013-08-17 19:15:00
12:35 PM,69.8,60.8,73,30.12,10.0,NNW,8.1,-,N/A,,Mostly Cloudy,340,2013-08-17 19:35:00
12:55 PM,69.8,60.8,73,30.12,10.0,NNW,10.4,-,N/A,,Mostly Cloudy,340,2013-08-17 19:55:00
1:15 PM,69.8,60.8,73,30.12,10.0,NNW,10.4,-,N/A,,Mostly Cloudy,330,2013-08-17 20:15:00
1:35 PM,69.8,62.6,78,30.12,10.0,NNW,12.7,-,N/A,,Mostly Cloudy,340,2013-08-17 20:35:00
1:55 PM,69.8,62.6,78,30.12,10.0,NNW,11.5,-,N/A,,Partly Cloudy,340,2013-08-17 20:55:00
2:15 PM,69.8,60.8,73,30.12,10.0,NNW,10.4,-,N/A,,Clear,330,2013-08-17 21:15:00
2:35 PM,69.8,62.6,78,30.12,10.0,NNW,12.7,-,N/A,,Clear,330,2013-08-17 21:35:00
2:55 PM,68.0,62.6,83,30.12,10.0,NNW,12.7,-,N/A,,Clear,340,2013-08-17 21:55:00
3:15 PM,69.8,62.6,78,30.10,10.0,NNW,10.4,-,N/A,,Clear,330,2013-08-17 22:15:00
3:35 PM,69.8,62.6,78,30.11,10.0,NNW,13.8,-,N/A,,Clear,330,2013-08-17 22:35:00
3:55 PM,68.0,62.6,83,30.11,10.0,NNW,15.0,-,N/A,,Clear,330,2013-08-17 22:55:00
4:15 PM,66.2,60.8,83,30.10,10.0,North,11.5,-,N/A,,Clear,350,2013-08-17 23:15:00
4:35 PM,69.8,60.8,73,30.10,10.0,NNW,11.5,-,N/A,,Clear,340,2013-08-17 23:35:00
4:55 PM,68.0,60.8,78,30.10,10.0,NNW,12.7,-,N/A,,Clear,340,2013-08-17 23:55:00
5:15 PM,68.0,60.8,78,30.10,10.0,North,15.0,-,N/A,,Partly Cloudy,350,2013-08-18 00:15:00
5:35 PM,68.0,60.8,78,30.10,10.0,North,15.0,-,N/A,,Clear,350,2013-08-18 00:35:00
5:55 PM,66.2,60.8,83,30.10,10.0,NNW,11.5,-,N/A,,Clear,340,2013-08-18 00:55:00
6:15 PM,66.2,60.8,83,30.10,10.0,North,13.8,-,N/A,,Clear,350,2013-08-18 01:15:00
6:35 PM,64.4,60.8,88,30.10,10.0,North,12.7,-,N/A,,Partly Cloudy,350,2013-08-18 01:35:00
6:55 PM,64.4,60.8,88,30.10,10.0,North,11.5,-,N/A,,Scattered Clouds,350,2013-08-18 01:55:00
7:15 PM,64.4,60.8,88,30.10,10.0,NNW,11.5,-,N/A,,Partly Cloudy,340,2013-08-18 02:15:00
7:35 PM,62.6,60.8,94,30.10,10.0,NNW,11.5,-,N/A,,Clear,340,2013-08-18 02:35:00
7:55 PM,60.8,59.0,94,30.10,10.0,North,11.5,-,N/A,,Scattered Clouds,350,2013-08-18 02:55:00
8:15 PM,60.8,60.8,100,30.11,10.0,NNW,9.2,-,N/A,,Partly Cloudy,340,2013-08-18 03:15:00
8:35 PM,60.8,60.8,100,30.11,10.0,North,8.1,-,N/A,,Scattered Clouds,350,2013-08-18 03:35:00
8:55 PM,62.6,60.8,94,30.11,10.0,North,9.2,-,N/A,,Overcast,350,2013-08-18 03:55:00
9:15 PM,62.6,60.8,94,30.12,10.0,North,9.2,-,N/A,,Overcast,360,2013-08-18 04:15:00
9:35 PM,62.6,60.8,94,30.12,10.0,NNW,6.9,-,N/A,,Overcast,340,2013-08-18 04:35:00
9:55 PM,60.8,60.8,100,30.13,10.0,NNW,8.1,-,N/A,,Overcast,340,2013-08-18 04:55:00
10:15 PM,60.8,60.8,100,30.13,10.0,North,5.8,-,N/A,,Overcast,360,2013-08-18 05:15:00
10:35 PM,60.8,60.8,100,30.12,10.0,NNW,5.8,-,N/A,,Overcast,330,2013-08-18 05:35:00
10:55 PM,60.8,60.8,100,30.12,10.0,North,5.8,-,N/A,,Overcast,350,2013-08-18 05:55:00
11:15 PM,60.8,60.8,100,30.12,10.0,NNW,6.9,-,N/A,,Overcast,340,2013-08-18 06:15:00
11:35 PM,60.8,60.8,100,30.13,10.0,NNW,5.8,-,N/A,,Overcast,340,2013-08-18 06:35:00
11:55 PM,60.8,60.8,100,30.13,10.0,NNW,3.5,-,N/A,,Overcast,330,2013-08-18 06:55:00